Погода в Андросе

Греция     37°51′28″N   24°50′52″E
темп.,
°C
ветер,
м/с
пор.,
м/с
влажн.,
%
обл.,
%
осадки,
мм/ч
давл.,
гПа
погр.,
м
18 апреля, вс
вс1800:00+16ссв4479100 0.0 101070
03:00+17всв3480100 0.0 101145
06:00+17в4479100 0.0 101154
09:00+17юв5784100 0.0 1012132
12:00+17ю3485100 0.0 101471
15:00+17ююв7984100 0.2 1013163
18:00+17зюз1289100 0.3 101457
21:00+16ююв5792100 1.4 1014171
19 апреля, пн
пн1900:00+17ю61087100 0.6 1015272
03:00+16ю4587100 1.4 101296
06:00+16ююз3491100 0.0 101270
09:00+15ююз4894100 2.3 1011423
12:00+16юз4887100 1.1 1012351
15:00+16ююз578417 1.2 1011439
18:00+17юз69745 0.3 1009288
21:00+17з912620 0.4 1010382
20 апреля, вт
вт2000:00+15з911680 0.0 1011753
03:00+14з910650 0.0 1011820
06:00+14з89640 0.0 1012784
09:00+14з66620 0.0 1014740
12:00+15зюз45592 0.0 1015598
15:00+16ююз56625 0.0 1015476
18:00+16ююз45627 0.0 1014393
21:00+16ююв22745 0.0 101545
21 апреля, ср
ср2100:00+16ю117614 0.0 101619
03:00+15з33705 0.0 101686
06:00+15сз34617 0.0 1016253
09:00+16с23570 0.0 1018164
12:00+17в015418 0.0 1018292
15:00+17з1157100 0.0 1019308
18:00+16ю225793 0.0 1019283
21:00+16ю336887 0.0 102081
22 апреля, чт
чт2200:00+15ююз11696 0.0 102029
03:00+15юз1168100 0.0 102021
06:00+15св116720 0.0 101920
09:00+16зюз116212 0.0 102145
12:00+16юз2156100 0.0 1021206
15:00+17юз2252100 0.0 1021228
18:00+17ю215165 0.0 1020187
21:00+17ю226047 0.0 102127